Orbital Elements
Epoch 2020 Apr. 21.0 TT = JDT 2458960.5
T 2020 Apr. 11.55747 TT Rudenko
q 3.5110530 (2000.0) P Q
z +0.0025941 Peri. 344.58927 -0.72844090 -0.68368409
+/-0.0000132 Node 207.87984 -0.61817134 +0.62811620
e 0.9908921 Incl. 174.58141 -0.29536087 +0.37154556
From 90 observations 2020 Mar. 21-July 20, mean residual 0".3.
|